Location: Brahman Valley
(40.6513°N, 111.8855°W)
Time: 08:35:22
(UTC+00:00)

Tiros 1 despin weight - Pass Details

Date: 17 May 2021
Orbit: 594 x 641 km, 48.2° (Epoch: 22 June)

Event Time Altitude Azimuth Distance (km) Brightness Sun altitude
Rises 09:01:30 0° 291° (WNW) 2,942 - -25.8°
Reaches altitude 10° 09:04:09 10° 279° (W) 2,028 - -25.6°
Maximum altitude 09:07:57 25° 224° (SW) 1,292 - -25.2°
Drops below altitude 10° 09:11:42 10° 170° (S) 2,005 - -24.9°
Sets 09:14:19 0° 157° (SSE) 2,902 - -24.7°
